User: anonymous   Login
Location: Mason Neck State Park
(38.6428°N, 77.1981°W)
Time: 17:19:05
(UTC-04:00)
Language:

Cosmos 1400 Rocket - Orbit

View from above orbital plane
View from above orbital plane
View from above satellite
View from above satellite

Ground track
Ground track

The orbit data is extracted from the following two-line orbital elements,

1 13403U 82079B   15089.48557004  .00004257  00000-0  29424-3 0  9995
2 13403 081.1686 115.9463 0036362 065.3009 295.1992 15.04983435774855
Epoch (UTC): 30 March 2015 11:39:13
Eccentricity: 0.0036362
inclination: 81.1686°
perigee height: 526 km
apogee height: 577 km
right ascension of ascending node: 115.9463°
argument of perigee: 65.3009°
revolutions per day: 15.04983435
mean anomaly at epoch: 295.1992°
orbit number at epoch: 77485

The dashed part of the orbit path shows where the satellite is in the earth's shadow,  

DLR